Theta_e
282 282 283 284 284 284 283 283 282 282 281 280 280 280 280 277 272 274 279 280 278 280 282 284 286 287 287 289 291 292 293 294 295 295 296 296 295 294 294 294 294 294 294 294 294 294 294 294 295 295 296 296 297 298 299 301 304 305 308 308 308 309 309 309 309 311 312 313 314 314 314 314 314 314 314 314 314 313 313 314 315 315 315 316 315 315 314
282 282 282 283 284 283 284 283 283 283 282 280 280 280 279 279 278 280 280 280 279 281 282 285 286 287 288 290 292 294 294 294 294 295 294 295 296 295 295 295 294 294 293 293 293 294 294 294 294 294 295 295 295 295 296 298 300 302 304 306 309 309 310 309 310 312 314 314 315 315 314 314 314 315 315 315 314 314 314 315 314 315 315 315 315 314 314
282 283 283 284 284 284 282 283 283 282 282 282 280 280 281 283 280 279 280 279 278 283 284 286 287 287 288 289 289 291 293 293 293 293 293 293 293 294 294 295 295 295 295 295 294 294 293 293 293 293 293 292 294 295 295 295 296 299 305 305 306 305 307 309 310 311 312 313 314 314 314 314 313 314 314 314 313 313 312 312 313 313 314 313 312 312 311
280 282 282 283 284 284 283 282 282 282 281 279 280 278 279 277 278 278 279 278 275 282 284 285 286 286 286 286 286 287 289 292 293 293 292 292 293 293 294 294 294 295 296 296 296 295 294 294 295 295 294 294 295 295 294 295 296 297 301 302 303 304 306 305 307 309 310 310 311 312 312 311 312 312 312 313 313 313 311 311 312 312 311 311 311 310 310
276 281 281 281 280 280 278 278 282 281 281 281 281 281 283 281 279 275 274 275 280 283 285 283 284 285 285 286 286 286 287 288 290 292 293 293 293 293 294 294 293 293 294 295 296 296 296 295 295 295 296 296 295 295 295 295 295 295 295 296 299 303 304 304 304 305 306 309 308 308 308 309 312 311 311 310 311 311 311 311 311 310 311 310 310 309 309
274 280 280 280 278 270 270 280 285 285 281 281 279 279 280 282 282 279 280 281 282 282 282 283 282 284 284 285 286 288 287 286 287 288 291 294 294 294 294 294 294 293 294 296 297 297 297 296 297 296 297 297 296 296 296 296 295 294 294 294 294 295 297 299 300 301 304 305 305 305 305 305 308 309 308 309 308 310 310 310 310 310 310 309 309 308 308
274 276 279 275 269 269 281 284 285 285 284 283 281 281 281 282 283 283 282 282 282 283 284 284 284 284 285 287 287 287 288 288 287 287 288 290 293 293 292 292 294 295 296 297 297 298 298 298 298 298 298 297 297 297 296 295 295 295 294 295 295 295 294 296 298 299 300 300 302 301 300 300 301 303 304 300 302 302 304 306 307 308 307 306 306 305 302
273 270 268 267 266 279 282 282 284 286 284 282 282 280 281 281 281 282 281 282 282 283 283 284 285 285 286 286 287 287 288 288 287 287 287 288 290 291 292 291 292 295 297 297 298 298 299 298 299 298 297 297 297 297 297 296 295 294 294 295 295 294 295 295 296 297 298 297 297 296 297 297 298 298 297 299 299 298 298 297 297 298 298 300 300 297 295
272 268 268 271 280 281 281 279 281 281 279 280 277 273 276 281 281 280 280 280 281 282 283 283 284 284 285 282 284 287 287 288 288 288 288 288 288 289 290 291 291 293 294 297 299 299 299 299 298 297 298 298 298 297 297 297 296 296 296 296 295 295 295 295 296 296 297 297 296 296 296 296 296 297 296 294 294 294 295 294 296 296 296 295 298 296 293
271 270 268 270 270 268 274 278 281 284 283 283 281 278 276 282 281 282 281 279 280 280 281 282 282 284 280 278 280 284 287 288 288 288 288 288 288 288 288 288 289 290 292 293 298 298 297 299 298 298 299 298 298 297 296 296 296 297 296 296 296 296 296 296 296 295 296 296 297 295 295 295 296 294 294 294 294 294 296 295 296 295 294 296 294 294 294
271 270 267 265 266 266 269 276 280 283 283 283 281 277 274 279 279 281 281 280 280 280 280 281 282 280 277 277 280 284 286 287 287 287 287 288 288 288 287 288 288 289 289 292 294 295 294 297 298 297 298 297 298 297 296 296 295 296 296 296 296 295 295 296 296 295 296 296 296 296 296 296 295 295 295 295 294 293 295 295 294 293 296 296 293 291 291
271 270 269 268 266 268 277 279 281 282 282 283 280 270 267 278 280 282 281 280 280 280 281 281 282 280 275 278 282 287 287 288 287 287 288 288 288 288 289 288 289 289 290 289 289 289 290 293 296 296 298 297 297 296 296 296 297 296 297 297 297 297 297 296 295 295 296 298 298 297 297 296 296 297 296 295 293 294 292 294 294 294 293 294 292 290 289
272 272 268 271 273 277 280 281 282 282 284 282 273 266 270 280 281 282 281 280 281 281 281 280 279 282 284 285 287 288 289 289 289 290 291 290 290 289 289 289 292 289 289 288 288 288 289 291 293 294 295 295 296 296 296 296 296 297 298 299 300 299 298 297 296 296 296 296 297 297 297 297 296 297 296 296 294 294 294 293 293 292 292 292 291 288 287
270 268 270 272 272 277 282 282 283 284 282 274 270 276 281 281 281 282 282 281 282 281 281 281 280 281 283 286 286 285 287 287 288 289 290 290 290 291 291 291 291 289 289 289 289 289 289 289 291 291 291 292 292 292 292 293 295 298 298 298 298 297 297 297 296 296 296 297 298 299 297 297 297 297 295 295 295 293 293 292 292 291 289 290 289 288 286
272 270 270 271 269 278 283 283 281 283 274 275 281 282 283 283 282 282 282 282 282 281 281 281 281 281 282 282 282 283 285 286 286 287 288 288 288 289 289 289 289 290 289 288 288 288 290 291 292 292 290 289 290 291 290 292 294 294 295 296 296 297 296 297 297 298 298 298 298 300 298 297 296 295 294 296 295 294 293 292 292 290 289 289 288 287 285
272 271 268 269 276 279 284 283 276 281 283 285 285 284 282 285 284 283 282 281 282 282 282 282 281 281 281 282 282 283 284 285 285 286 287 287 288 288 289 289 288 289 288 288 288 288 289 290 290 291 291 291 291 290 291 293 293 294 294 294 295 295 295 296 298 298 298 298 297 296 295 295 294 293 293 294 295 294 292 292 291 289 287 288 288 287 286
276 274 276 280 283 283 285 285 285 285 287 287 287 286 285 284 284 285 283 284 283 282 282 282 281 280 281 282 283 282 283 284 284 285 286 286 286 287 287 287 289 289 289 288 288 288 289 289 289 289 289 290 290 290 292 293 292 292 293 294 294 294 295 296 296 298 299 299 300 300 296 293 293 291 290 291 291 290 291 290 290 289 287 289 290 289 287
283 283 284 285 284 285 284 287 287 286 287 286 286 285 284 284 285 284 283 283 283 283 282 282 281 281 282 281 282 282 283 283 284 286 286 286 286 287 287 288 288 289 289 289 289 289 289 288 289 289 289 289 289 290 292 293 293 293 293 293 293 293 294 294 294 295 296 297 298 298 298 295 294 293 293 291 292 290 289 289 289 288 288 286 286 287 286
277 272 282 282 283 284 285 285 287 287 287 286 286 285 284 284 284 283 283 282 283 283 282 283 282 281 281 281 282 282 283 283 284 284 284 285 285 285 285 286 288 288 288 287 288 288 288 289 288 289 289 290 290 290 291 292 292 292 292 292 292 292 292 292 293 292 293 294 293 294 294 293 293 293 291 291 292 291 291 290 288 286 287 287 286 285 285
268 271 279 281 283 284 285 285 284 285 286 286 286 285 284 284 284 284 284 283 283 283 283 282 281 281 281 281 281 281 281 282 283 283 283 283 284 284 285 285 286 285 285 285 286 287 287 288 289 290 290 290 291 291 292 292 292 291 291 291 291 291 292 291 291 292 293 291 293 293 291 291 291 290 289 291 291 291 290 289 288 286 287 286 287 287 285
277 278 279 279 281 282 282 284 284 283 283 283 284 284 283 283 284 283 283 283 283 282 282 281 281 280 281 281 281 281 281 281 282 282 282 283 283 284 284 284 285 284 284 285 285 285 286 287 287 288 289 289 290 290 291 292 291 291 291 291 291 291 291 290 290 290 291 293 294 293 289 286 284 284 286 288 289 290 289 290 293 291 289 289 289 289 288
269 272 277 278 272 270 277 279 281 282 283 282 282 282 283 282 283 282 282 282 282 282 282 281 281 280 280 281 281 281 282 282 282 282 282 283 284 284 284 285 284 284 285 285 284 285 285 286 286 287 287 288 290 291 291 291 290 290 290 290 290 290 291 290 292 290 290 289 289 288 288 287 286 286 285 287 286 287 287 292 292 291 291 290 290 289 288
266 274 277 278 276 276 277 280 282 282 283 282 282 282 282 283 282 281 281 281 281 281 282 282 281 280 281 281 281 281 282 282 283 284 284 284 284 284 285 285 284 284 284 285 285 284 285 286 286 287 287 288 289 289 289 290 289 290 289 289 289 290 290 290 291 292 291 290 288 287 286 285 286 286 284 286 287 287 288 289 290 291 290 290 290 289 290
278 278 279 279 279 279 281 281 281 282 283 282 283 282 282 282 282 281 280 281 281 280 281 282 282 282 281 281 280 281 283 284 284 284 285 285 285 285 285 285 284 284 285 285 285 285 286 286 286 287 287 288 288 289 289 289 289 289 289 289 289 289 290 290 291 290 291 291 289 288 287 286 287 287 285 285 285 287 287 287 289 290 290 289 289 289 289
278 281 280 280 280 280 280 281 282 282 286 284 282 282 282 282 282 282 282 281 281 281 281 281 281 281 281 281 282 284 284 284 285 285 285 286 285 285 285 285 284 285 285 286 286 287 287 287 287 287 286 287 288 288 288 288 289 288 289 288 288 288 289 289 290 290 290 290 290 289 287 286 286 286 286 286 285 284 286 287 287 287 288 288 288 288 288
282 281 282 282 282 282 282 282 282 283 282 282 283 283 285 288 285 284 281 281 281 281 281 281 281 282 281 282 284 285 285 285 286 286 285 284 284 284 284 284 285 286 286 287 287 287 287 287 287 287 287 287 287 288 288 288 288 288 288 288 289 289 288 289 289 290 291 290 290 290 290 289 288 287 287 288 288 286 285 283 286 286 287 287 288 288 287
282 282 281 280 281 280 278 282 280 280 280 282 281 282 282 281 285 284 282 283 283 283 283 282 282 282 283 284 285 285 285 285 286 285 285 284 284 284 285 286 286 286 286 286 286 286 287 287 287 287 287 288 289 289 288 288 288 288 288 288 288 287 287 287 289 289 290 290 290 289 288 288 288 288 288 286 285 286 286 286 284 282 281 282 285 287 286
281 280 280 278 276 278 279 280 280 280 282 282 281 283 283 280 280 281 282 283 284 283 282 281 281 281 282 284 284 285 285 285 284 284 283 284 284 285 286 286 286 286 286 286 286 286 286 287 287 288 288 289 289 289 288 288 288 287 287 287 287 287 288 288 288 288 288 288 289 289 289 289 289 289 287 285 285 284 284 284 283 282 280 280 281 285 286
282 282 281 280 280 280 280 281 282 282 283 283 284 282 282 281 279 280 281 281 281 281 280 281 281 282 282 283 284 284 284 284 283 283 283 284 285 285 286 286 286 286 286 286 286 287 287 287 287 287 288 289 290 290 291 291 290 289 288 288 287 287 287 287 288 288 288 288 288 289 288 289 288 287 285 285 284 284 284 283 283 282 282 282 282 283 284
280 280 281 282 282 281 282 282 282 282 283 282 281 282 282 281 280 280 280 280 280 280 281 280 280 282 283 283 284 285 284 283 283 283 284 284 285 285 285 285 285 286 286 286 286 286 286 286 286 286 287 289 290 290 290 290 291 291 291 291 290 289 289 288 288 288 288 288 288 287 287 287 287 286 285 284 284 284 283 283 283 282 281 282 283 282 282
280 280 281 282 281 281 281 281 282 281 281 280 281 281 281 281 281 280 280 280 280 281 281 281 281 282 282 283 285 285 285 284 284 284 284 284 284 284 284 285 283 283 284 284 285 285 285 286 286 287 289 291 291 292 292 292 292 292 291 291 291 289 288 287 287 289 288 287 287 287 286 285 285 285 285 284 284 283 283 283 283 282 282 282 282 282 283
281 280 280 281 280 281 281 281 281 281 280 281 281 281 280 280 280 281 281 281 281 280 281 281 281 282 283 284 285 285 284 283 283 284 284 283 284 284 285 285 285 284 285 285 285 286 286 286 286 288 290 290 291 292 292 292 292 292 292 290 291 291 289 287 288 288 288 287 287 287 286 285 285 285 285 284 284 283 283 283 282 282 283 283 283 284 284
281 280 279 280 281 280 281 281 281 281 280 280 279 281 282 281 280 282 282 282 282 281 281 281 283 283 284 284 284 283 283 283 283 283 283 283 284 284 285 285 285 285 285 285 286 286 286 286 287 288 289 290 291 292 291 291 291 291 292 292 293 292 289 288 289 289 288 287 286 286 286 286 285 285 284 283 284 284 283 283 283 283 283 284 285 285 286
281 280 280 279 281 281 281 281 280 280 280 280 281 282 282 281 281 282 282 282 282 282 281 282 282 283 283 283 283 282 282 282 281 281 282 283 283 284 285 285 285 285 286 287 286 286 286 287 288 288 289 291 291 291 291 292 291 290 292 292 292 291 290 289 289 289 288 286 286 286 286 285 285 285 284 283 283 284 284 284 284 285 285 285 286 285 285
280 281 280 280 279 280 282 282 281 281 281 282 282 282 282 281 280 282 283 283 283 282 282 282 282 282 282 283 282 281 281 281 281 281 282 283 283 284 284 285 285 285 286 287 286 285 286 287 287 287 289 291 291 291 291 291 291 291 291 291 290 291 290 289 290 288 287 287 287 286 285 285 284 285 285 284 285 284 284 285 285 286 286 285 285 285 285
281 282 282 281 280 280 281 282 283 283 283 281 280 280 281 281 280 281 282 282 283 283 283 282 281 281 282 283 281 281 281 281 281 281 282 283 284 284 284 283 283 283 284 285 286 285 286 286 286 286 288 290 290 291 290 290 291 291 291 290 290 289 289 289 288 287 287 287 286 286 285 285 285 285 285 285 285 285 285 285 286 286 286 285 285 285 284
281 283 282 282 281 281 281 282 282 282 281 280 280 280 280 279 280 281 282 283 283 283 283 281 280 281 282 283 283 281 281 281 281 282 282 283 284 283 282 282 282 282 282 282 283 285 285 286 285 286 288 289 290 290 288 288 291 291 291 291 291 290 290 290 290 289 288 287 287 286 286 286 286 285 285 286 286 286 286 286 286 286 286 285 285 285 284
281 282 281 282 281 281 281 281 280 281 281 280 278 279 279 280 280 280 280 281 281 282 282 281 281 282 283 283 282 281 281 281 282 282 282 282 283 282 282 281 281 281 281 281 283 284 285 285 285 286 287 288 289 289 288 287 288 291 291 290 290 290 289 289 289 289 288 288 287 288 288 288 287 287 287 287 287 286 286 286 286 285 285 285 285 285 284
282 281 281 281 281 281 281 281 281 280 280 280 280 279 280 279 279 279 279 280 280 281 281 281 281 281 282 283 282 282 281 281 281 281 282 282 282 282 281 281 281 282 282 284 284 284 285 285 285 286 286 286 287 289 288 287 288 290 290 290 290 289 289 289 289 288 288 288 289 288 288 288 287 287 287 286 286 286 285 285 285 285 284 284 284 284 284
281 281 282 281 281 281 281 281 281 280 279 279 280 280 279 279 279 279 279 280 280 280 281 281 281 281 281 281 281 281 281 282 282 281 281 281 281 281 281 282 282 282 283 284 284 284 284 285 285 285 286 286 287 287 287 287 287 289 289 289 289 288 289 289 289 288 288 288 287 286 287 287 286 286 286 285 285 285 284 284 284 284 284 284 283 283 283
283 282 281 281 282 280 281 281 282 282 280 279 279 279 279 279 279 279 279 280 281 281 281 281 280 280 280 280 280 280 280 281 281 280 281 281 279 279 278 278 280 281 282 283 284 284 284 284 284 284 284 285 286 286 287 287 287 287 287 287 287 287 287 287 287 287 286 286 286 286 286 286 285 285 285 284 284 283 283 283 283 283 283 282 282 281 281
283 282 281 281 281 281 281 281 280 281 281 280 279 279 278 279 279 279 279 279 280 280 280 281 281 280 280 280 280 280 279 280 280 280 280 279 278 276 276 278 280 280 283 283 283 283 283 283 284 284 284 284 285 285 285 286 286 286 286 286 286 286 286 285 285 285 285 284 284 284 284 284 284 283 283 283 283 282 282 282 281 281 281 281 280 280 280
282 282 282 282 282 281 282 281 281 281 280 281 278 279 278 278 279 279 279 279 279 279 279 280 280 280 280 279 278 278 278 278 278 278 278 278 279 278 278 278 279 280 282 282 282 282 282 282 283 283 284 285 285 285 285 285 285 285 285 285 284 284 284 284 284 284 283 283 283 283 283 283 283 282 282 281 281 281 280 280 280 280 280 280 280 280 279
283 283 283 283 283 283 282 282 281 280 280 281 279 279 279 279 279 279 278 278 278 278 279 279 279 279 279 278 278 277 277 277 277 277 277 277 278 279 279 278 278 280 281 281 281 281 281 282 282 283 284 284 285 285 285 284 284 284 284 284 283 283 283 283 283 282 282 282 282 282 282 282 281 281 281 280 280 279 279 279 279 279 279 279 279 279 279
284 284 284 284 284 283 283 282 282 282 281 280 279 279 279 279 278 278 278 277 277 278 278 278 279 279 278 278 278 278 277 277 277 276 276 276 275 277 279 280 279 279 280 281 280 280 281 281 282 282 282 283 283 284 284 284 284 284 284 284 283 283 283 283 282 282 282 282 282 282 282 281 281 281 280 280 280 279 279 279 279 279 279 278 278 279 279
284 284 284 283 283 284 284 284 284 282 281 280 279 279 279 278 278 278 277 277 277 277 277 278 278 279 279 278 278 277 277 277 277 277 277 277 277 278 279 280 279 280 280 280 280 280 280 281 281 282 282 282 282 282 282 282 283 283 282 282 282 283 283 283 283 282 282 282 282 281 281 281 280 280 280 280 280 280 280 280 279 279 279 279 279 279 279
284 285 284 284 285 285 284 284 282 282 280 280 279 279 279 278 278 278 277 277 277 277 277 277 278 278 278 278 278 277 276 276 277 277 277 277 278 279 279 280 280 280 280 279 279 280 280 281 281 281 281 281 281 280 281 281 281 281 281 281 281 282 282 282 282 282 282 282 282 282 282 281 280 280 280 280 280 280 280 280 279 280 280 281 281 281 280
284 284 285 285 285 285 283 281 282 281 280 281 280 280 280 279 278 278 277 277 277 277 277 277 277 278 277 278 277 278 277 277 274 277 277 277 277 277 277 277 278 280 279 279 280 280 281 281 281 281 280 280 280 280 280 280 280 280 280 280 280 280 280 280 280 280 281 281 281 280 280 280 280 280 280 280 280 280 280 280 280 281 282 282 281 281 281
284 285 285 285 285 283 283 283 282 282 282 281 280 279 279 279 278 278 277 277 277 277 277 277 277 277 277 278 278 277 278 277 275 275 278 277 277 277 277 279 280 280 278 277 278 278 280 281 280 280 280 280 279 279 279 279 279 279 279 279 279 279 279 279 279 280 280 280 280 280 280 279 279 279 280 280 280 280 281 281 281 281 281 281 280 280 280
284 284 283 283 283 283 283 283 282 283 284 281 280 279 279 279 278 277 277 277 277 278 277 277 277 277 277 277 277 277 278 277 278 277 278 278 277 278 278 278 278 280 279 278 277 277 279 280 280 280 279 278 278 278 278 278 278 278 278 279 279 278 280 280 281 281 280 280 280 279 279 279 279 279 279 279 279 279 279 280 280 281 281 280 279 279 279
282 283 284 284 285 285 285 285 285 285 283 282 281 279 279 279 280 280 278 278 277 277 277 277 277 277 277 276 277 277 277 277 277 279 277 277 277 279 279 278 278 279 277 277 275 275 275 275 276 277 278 278 277 278 277 277 277 278 278 277 277 277 278 278 277 278 278 279 278 279 278 278 278 278 277 277 278 278 278 278 278 278 278 278 279 279 279
284 284 285 285 285 285 285 285 285 284 283 282 280 279 279 280 280 279 278 279 278 278 277 277 276 277 276 276 277 277 277 277 277 277 278 278 278 277 278 279 276 277 277 276 276 277 275 276 279 279 278 276 276 276 278 278 277 277 277 277 278 277 277 276 276 277 277 278 278 277 277 277 277 276 276 276 276 277 277 276 275 275 275 274 274 275 276
Wind_Speed
4 2 4 7 8 6 4 4 1 3 1 4 6 0 1 3 3 7 2 2 5 1 4 6 6 6 6 7 8 6 4 7 8 9 10 9 9 8 9 8 8 8 8 7 7 7 6 6 7 6 6 5 4 4 4 4 5 6 4 4 6 6 6 7 6 7 9 8 7 7 6 8 9 9 8 8 7 7 6 3 6 6 6 6 5 9 12
4 3 3 5 13 4 7 5 4 2 9 6 5 4 2 7 10 8 9 9 7 1 3 6 7 6 4 4 5 12 15 11 9 11 12 11 11 11 11 10 9 9 10 9 8 8 9 8 7 7 6 6 5 4 4 4 4 3 3 5 4 4 7 5 5 5 9 10 10 10 10 7 7 7 9 9 9 8 8 10 7 8 9 8 10 11 10
1 3 4 7 8 9 7 5 5 4 7 10 7 5 7 13 9 5 7 11 7 4 3 4 5 5 1 12 17 12 10 12 12 13 12 12 12 12 12 12 12 11 12 12 12 12 11 10 8 7 5 5 5 5 4 4 4 2 1 2 3 2 3 4 8 11 11 10 10 10 11 11 11 9 7 6 5 5 5 5 5 3 4 7 8 6 5
0 1 5 7 10 13 10 5 6 4 5 7 4 4 3 2 9 5 7 8 2 2 5 4 4 7 14 13 11 12 10 10 12 13 11 11 11 11 10 10 11 12 12 11 11 10 10 11 11 10 10 8 8 7 6 5 3 3 3 2 1 3 2 2 2 4 8 9 9 9 7 7 8 8 7 8 8 8 8 8 7 8 8 9 6 4 5
2 1 1 4 4 3 4 3 2 4 8 7 7 6 9 4 5 5 7 4 0 1 3 3 7 9 10 12 9 9 10 10 10 10 9 9 9 8 8 9 9 8 8 7 7 9 8 9 9 9 8 10 10 8 7 5 2 4 4 3 2 2 1 2 3 3 3 7 7 6 5 6 6 6 7 7 7 8 10 10 6 5 8 8 7 5 5
2 1 2 2 2 1 2 2 2 2 5 9 13 6 5 6 4 3 3 4 1 2 4 5 5 9 8 5 5 4 6 8 10 10 8 7 8 8 8 7 7 6 6 6 6 6 6 6 6 6 7 8 8 7 8 7 7 4 4 3 4 2 1 1 1 3 2 1 0 0 1 4 5 6 6 7 7 7 6 6 7 9 9 8 6 6 7
2 1 2 2 1 4 2 4 3 7 6 17 17 9 6 5 6 7 7 6 4 1 1 2 4 4 4 5 7 8 7 6 7 8 9 9 9 10 10 11 9 7 7 7 7 8 8 7 6 9 11 10 8 10 10 10 8 9 7 6 5 4 2 1 4 4 4 5 7 6 5 5 5 6 6 5 4 4 5 8 9 10 9 8 7 5 4
2 3 1 2 3 1 1 2 4 3 2 6 15 12 7 5 3 3 5 3 2 1 2 2 2 2 3 2 7 9 8 7 7 7 7 7 8 9 8 9 10 9 8 7 7 6 4 5 5 5 5 6 8 8 7 8 8 8 9 9 8 6 6 4 2 3 6 5 5 5 6 5 7 6 6 6 7 5 5 5 5 6 5 7 8 6 5
3 2 3 1 4 2 1 1 1 0 1 1 2 7 1 2 3 2 3 4 3 3 3 3 4 3 2 5 7 8 9 8 6 5 6 5 5 5 5 5 6 6 7 8 7 6 5 4 5 4 4 5 5 7 8 8 7 8 9 10 10 8 6 5 3 3 1 5 4 5 5 6 5 6 6 5 4 3 7 5 5 4 4 3 4 7 5
6 7 4 2 0 2 7 4 3 3 3 2 2 6 3 3 5 1 3 4 3 4 4 6 5 2 1 6 6 6 8 7 6 6 5 4 4 5 5 5 6 7 7 7 7 9 9 6 5 5 3 3 5 5 6 5 7 8 8 8 6 7 9 8 8 3 4 2 5 4 5 5 5 4 4 3 3 2 6 5 5 4 4 5 3 2 2
3 3 6 4 6 5 3 3 5 4 2 3 2 6 1 1 2 0 4 6 4 3 3 3 3 5 1 3 4 5 7 7 5 5 5 4 4 4 5 5 6 5 6 5 5 6 8 8 9 7 6 4 4 4 4 4 4 6 7 6 6 5 4 6 6 4 1 2 3 3 4 4 5 4 4 4 3 4 5 5 4 4 4 6 5 4 3
2 6 4 4 1 1 2 5 5 5 2 1 2 1 5 2 1 0 3 6 4 3 3 3 6 5 2 4 5 3 6 6 5 5 6 7 7 6 5 4 4 4 4 5 7 6 6 6 6 8 7 8 6 5 5 2 2 4 6 7 6 5 2 3 5 3 1 1 1 3 3 4 3 1 2 4 4 5 4 5 6 5 5 6 6 4 4
1 5 2 3 1 3 1 4 4 8 1 4 5 7 5 3 1 0 3 4 2 2 4 2 3 2 3 2 4 4 5 7 7 6 6 7 6 7 7 7 7 5 5 4 4 3 4 4 6 6 7 6 8 8 8 7 6 2 3 4 5 5 5 6 4 3 0 1 1 2 1 1 2 1 1 1 3 5 5 5 6 6 5 5 6 5 4
2 1 5 2 1 2 3 4 1 4 1 5 6 2 1 4 3 1 2 4 1 2 2 1 1 1 3 4 3 3 4 4 4 4 4 6 8 7 5 7 7 6 6 6 6 5 3 4 5 5 4 6 7 7 8 9 9 6 3 3 3 3 3 4 4 2 2 2 1 1 1 2 2 2 1 3 3 4 6 6 6 5 4 5 6 5 3
2 3 3 3 2 0 5 7 3 4 3 1 3 3 1 2 2 3 1 2 2 2 0 2 2 3 3 3 4 4 6 6 8 10 9 8 7 8 8 8 8 8 8 8 6 6 6 4 4 4 4 5 5 5 6 8 8 9 7 5 4 3 3 4 4 4 2 1 1 0 2 1 3 3 3 4 4 5 6 5 6 5 4 4 5 5 4
2 2 1 1 0 3 6 2 4 1 3 3 4 3 1 0 2 2 2 1 3 3 2 1 2 3 3 4 4 5 5 6 7 7 7 8 9 9 8 6 5 5 6 6 8 7 7 7 6 5 4 5 6 6 8 7 5 6 7 6 5 5 5 5 6 7 6 3 2 2 2 2 3 3 3 4 4 5 5 6 6 6 4 4 5 5 5
1 2 4 2 1 2 5 6 5 3 1 2 3 4 3 4 2 3 3 3 2 3 3 2 2 2 3 4 5 4 5 6 6 6 7 7 9 9 9 10 10 9 9 9 7 8 7 7 7 7 5 6 7 7 7 5 4 4 4 4 5 6 6 6 6 7 7 6 8 9 6 4 3 3 3 5 6 4 6 6 6 6 5 5 6 6 6
6 7 5 4 1 2 5 4 1 2 1 1 2 4 3 3 3 4 4 3 2 2 3 1 2 2 3 3 4 4 4 4 5 5 5 5 5 6 8 9 9 8 9 10 10 10 8 5 6 5 6 5 7 8 7 7 6 5 4 4 4 4 5 5 6 5 5 6 7 8 8 5 6 6 7 6 7 5 6 7 7 7 7 6 5 5 5
3 1 4 3 5 3 2 2 1 1 0 2 3 2 2 2 2 1 1 1 1 2 1 2 2 3 2 2 3 3 4 5 6 7 8 8 7 7 9 9 9 11 10 11 11 10 12 7 4 5 6 7 7 7 8 8 8 7 6 5 5 4 4 4 4 4 5 6 6 6 6 7 7 7 7 6 6 6 6 6 6 6 6 6 5 5 6
2 3 6 3 1 2 2 2 2 2 1 0 0 1 0 0 1 1 1 2 0 0 2 2 1 2 2 2 3 3 4 5 6 7 9 10 11 10 8 9 9 10 10 11 13 13 12 10 6 7 7 8 8 9 8 8 8 7 6 6 7 6 5 4 3 3 3 5 6 6 4 2 4 5 5 7 8 8 8 8 7 6 6 6 6 6 6
1 2 0 1 1 1 2 2 2 2 2 2 0 0 1 1 1 1 1 0 1 2 2 3 3 3 3 2 3 4 5 6 6 7 9 10 10 11 11 11 9 10 10 12 13 13 14 11 9 9 10 10 8 8 8 8 8 8 9 7 7 7 6 4 4 3 3 2 1 1 1 2 2 2 1 3 4 6 3 4 8 9 8 7 6 6 7
0 4 3 5 4 2 6 6 3 3 3 2 2 1 1 1 1 2 0 2 3 3 3 2 1 2 3 4 3 4 5 6 8 9 10 10 11 12 11 11 11 12 12 12 13 14 13 10 10 11 11 12 10 7 6 7 7 7 7 7 5 6 5 5 6 4 3 2 2 3 4 4 3 3 5 6 3 1 2 2 3 5 9 7 8 8 7
2 5 4 4 2 1 3 2 1 2 2 4 4 4 3 3 3 2 2 1 1 1 0 1 1 3 4 4 3 4 5 7 8 9 10 11 12 13 13 14 14 13 13 13 13 14 13 10 11 11 11 10 8 6 4 4 4 6 5 7 7 7 6 6 6 5 4 3 3 5 4 2 2 4 2 5 10 10 3 1 6 8 8 7 10 10 10
1 3 4 4 2 2 1 1 2 3 3 4 4 3 2 3 3 3 3 3 3 2 3 4 4 4 4 4 4 6 8 9 10 10 11 12 12 13 12 13 15 15 15 14 14 14 12 10 11 9 10 9 8 8 6 5 5 6 6 6 8 7 7 6 5 5 5 6 5 6 5 6 6 5 4 4 5 9 11 8 6 7 9 9 10 10 11
2 2 3 4 4 2 2 2 1 2 1 2 2 2 2 2 2 4 5 4 4 3 3 3 4 3 3 5 5 7 10 11 10 11 12 12 12 12 12 13 15 14 14 13 13 13 12 12 12 12 12 11 8 8 8 7 7 8 7 7 8 7 7 7 6 5 5 5 6 6 7 6 5 6 6 6 5 3 8 11 14 12 7 7 11 11 12
4 3 1 1 1 1 0 0 0 1 0 0 1 0 0 2 3 4 3 2 1 1 2 4 5 6 4 5 6 8 10 11 12 12 11 10 11 12 12 12 13 13 13 13 13 13 13 14 13 12 12 11 9 10 9 9 9 9 9 9 9 8 7 7 6 6 6 5 5 5 6 8 8 7 6 8 8 8 6 5 8 10 12 11 9 11 10
1 4 5 2 0 2 1 1 2 2 1 0 3 2 1 0 0 1 0 0 0 1 3 4 4 5 5 5 7 8 10 12 12 10 9 11 13 12 11 11 13 13 14 13 12 13 13 13 12 13 13 13 11 11 10 11 11 11 11 11 9 10 14 10 7 7 6 6 5 5 4 5 6 7 7 6 6 8 8 8 7 6 4 5 6 6 8
3 3 2 2 3 3 2 2 3 2 1 3 3 1 0 1 3 2 1 2 3 3 4 4 4 5 6 7 7 10 10 10 10 11 11 11 10 10 11 12 12 12 11 11 11 11 11 11 11 12 13 12 11 11 11 11 12 12 11 11 10 9 9 11 10 9 7 6 6 6 7 7 7 8 7 7 7 6 5 7 8 8 5 4 4 6 9
1 1 1 3 3 3 2 1 2 2 1 0 0 1 1 2 1 0 1 2 2 3 4 5 4 4 5 7 7 8 9 9 10 11 11 10 10 10 10 10 10 10 9 9 9 9 9 10 10 11 12 11 11 10 10 11 11 11 11 11 10 9 9 9 9 9 8 7 7 8 7 7 6 5 5 6 5 6 6 7 7 7 8 7 7 7 7
3 1 1 1 1 2 3 2 3 1 1 0 1 0 0 2 2 2 2 3 3 4 5 4 4 5 6 6 7 8 10 11 10 10 10 9 9 9 8 8 8 7 7 7 8 9 10 11 11 11 12 11 10 10 10 10 10 11 12 12 11 10 9 9 7 8 8 8 8 9 8 7 6 7 7 7 7 7 8 8 9 9 8 6 7 10 9
2 1 2 0 2 1 3 3 3 3 2 1 1 0 2 0 1 3 4 4 3 4 5 4 4 6 5 6 8 7 7 8 9 9 8 8 8 7 7 6 6 8 9 10 10 10 10 10 10 10 11 11 10 9 9 9 9 10 10 10 10 14 15 14 11 9 8 8 7 7 6 6 6 7 8 7 6 6 7 8 8 8 8 8 8 8 8
2 2 4 1 1 3 1 1 3 3 3 0 0 2 3 3 4 5 5 4 5 4 4 4 5 6 6 7 7 7 7 8 8 8 7 7 6 6 6 7 8 8 9 9 9 9 9 9 11 12 12 11 11 10 8 8 7 8 8 9 10 9 11 15 10 10 8 8 8 8 8 8 7 7 7 8 9 9 9 9 9 8 8 8 8 8 8
2 1 2 1 0 0 2 2 4 3 2 2 4 4 4 4 4 4 5 5 5 5 4 5 4 4 5 6 6 6 7 8 8 6 7 8 8 9 10 8 8 8 8 7 8 8 8 10 11 12 12 11 10 9 8 7 7 7 7 8 8 9 9 11 11 9 8 7 7 8 7 8 8 7 7 6 8 10 9 9 9 8 8 7 7 7 7
4 4 4 3 5 5 5 4 3 3 4 3 4 4 4 4 4 5 5 4 5 5 4 4 3 3 5 5 5 6 7 7 6 7 9 9 9 10 9 9 8 8 8 7 6 8 9 10 11 11 12 11 10 9 8 6 3 2 4 5 6 6 7 7 9 7 6 6 6 8 8 8 9 8 7 7 5 7 10 10 9 9 8 7 6 6 5
3 3 3 3 3 3 5 5 5 4 4 4 5 4 4 4 4 5 3 3 4 4 3 3 2 3 3 4 5 6 7 7 9 9 9 9 9 9 8 8 9 8 9 8 8 10 11 12 12 12 12 11 10 10 9 8 7 6 7 7 6 6 7 8 6 6 7 7 8 7 6 7 6 6 8 9 10 8 6 9 10 9 9 8 6 5 5
2 1 1 2 3 3 3 3 3 4 4 4 5 5 5 4 3 3 3 3 2 3 2 1 2 2 3 4 5 7 7 8 8 8 9 10 8 7 7 8 9 10 11 11 10 12 13 12 16 18 11 10 10 11 11 9 8 9 8 8 9 9 8 7 6 6 6 6 7 7 7 8 10 7 7 10 8 8 9 8 8 8 8 7 7 6 5
3 4 4 3 3 3 3 3 4 4 4 4 4 4 3 3 2 1 1 1 1 1 1 1 2 3 3 3 4 4 4 5 6 7 6 6 6 6 7 8 9 9 9 9 12 12 11 11 16 16 11 9 10 11 13 14 9 9 9 9 9 9 8 8 8 8 7 7 8 8 9 7 7 8 5 7 9 8 8 8 8 7 7 6 6 6 6
4 4 4 4 3 3 4 3 2 1 2 3 2 3 3 1 1 1 1 1 2 2 1 2 1 0 1 2 3 5 7 9 9 8 7 7 6 5 7 8 9 8 9 8 11 11 9 11 14 10 9 9 9 10 13 16 13 10 9 9 9 9 9 9 9 9 8 8 8 8 8 8 9 9 8 8 8 9 8 8 7 7 6 5 5 5 5
1 1 2 3 2 3 2 3 2 2 3 4 3 2 1 2 2 1 1 1 1 1 2 2 1 2 1 1 2 4 5 7 7 7 7 8 6 4 5 5 4 5 5 8 9 8 9 10 8 8 9 9 9 9 11 14 13 10 9 9 10 9 9 9 9 9 9 8 8 8 8 8 7 8 8 8 8 8 7 7 7 6 6 5 5 5 5
4 4 4 4 4 3 2 4 4 4 3 2 2 3 3 3 2 2 1 1 1 1 1 2 2 2 2 1 2 3 3 4 5 6 7 6 5 4 4 7 9 8 9 10 8 8 11 14 11 8 8 8 8 7 8 12 11 8 8 9 9 8 8 8 9 9 8 8 9 9 8 8 8 8 8 7 7 7 6 6 7 6 6 6 6 6 6
6 5 4 4 4 3 3 3 5 5 4 3 3 4 3 4 3 2 1 1 0 0 1 1 1 2 1 1 1 2 3 3 4 5 4 4 6 6 6 7 8 8 9 8 7 8 11 10 9 8 8 8 8 9 8 11 9 8 8 9 8 8 8 9 8 8 8 8 7 8 8 8 8 8 7 7 7 7 7 7 7 6 6 7 6 6 6
6 5 4 4 4 4 4 4 3 4 5 4 3 2 3 4 4 4 3 1 1 1 2 1 2 1 1 1 1 2 3 4 4 4 4 5 5 4 6 5 7 7 10 10 9 9 9 9 9 8 8 7 7 12 11 9 8 8 8 8 8 9 9 9 9 8 8 8 8 8 8 8 8 8 7 7 7 7 7 7 7 7 6 6 6 6 6
5 5 6 6 5 5 4 4 4 4 4 6 3 3 4 4 3 3 2 1 2 3 2 2 2 2 2 2 2 2 3 3 4 4 4 3 1 2 2 4 6 7 10 7 8 7 8 7 8 7 10 10 9 12 11 8 8 8 8 8 9 9 9 9 8 8 8 8 8 8 8 8 8 7 8 8 7 7 7 7 7 7 6 6 6 6 6
6 6 6 6 6 6 5 4 4 3 3 5 3 3 4 4 4 5 4 3 3 3 4 3 2 1 1 1 2 3 3 3 4 4 3 4 5 4 4 4 5 6 10 7 7 7 7 7 7 10 13 15 14 13 9 8 7 8 8 8 8 8 8 9 9 8 9 8 8 8 8 8 8 7 8 8 7 7 7 7 7 6 7 7 6 6 6
7 7 7 8 7 5 5 5 5 6 6 3 1 3 4 5 4 4 4 4 3 3 3 3 3 3 2 1 1 0 2 2 2 2 3 4 5 5 5 5 6 5 7 8 6 7 7 7 10 14 13 14 14 13 9 8 8 8 8 8 8 8 8 8 8 8 8 8 8 8 8 8 7 8 8 8 7 8 7 7 7 6 6 6 6 6 6
7 8 8 7 6 7 8 7 7 3 2 1 1 1 3 4 6 5 4 4 4 4 4 4 4 4 3 3 1 1 2 2 2 1 1 0 1 2 4 5 4 5 8 9 6 6 6 11 14 13 14 13 12 10 8 7 7 8 8 8 8 8 8 7 8 7 7 8 7 7 7 7 8 7 7 7 7 7 7 7 7 6 6 5 5 5 5
7 6 6 7 8 7 6 5 3 2 1 1 3 4 4 4 5 5 5 4 4 3 3 3 4 4 4 4 5 4 1 1 2 2 3 2 2 3 3 5 6 7 7 6 6 6 6 8 10 13 13 13 12 8 7 7 8 7 8 8 7 7 7 7 7 7 7 7 8 8 8 8 7 7 7 7 7 6 6 6 6 5 5 5 5 5 5
7 7 7 7 8 7 4 3 3 4 5 7 7 7 6 5 5 4 4 4 4 3 3 2 3 4 3 3 2 2 5 5 2 1 1 2 2 3 3 3 4 6 7 6 7 8 12 12 13 13 13 11 9 7 7 7 7 7 7 7 6 7 7 7 7 7 7 7 7 7 7 7 7 7 6 6 6 6 5 5 5 5 4 4 4 4 4
7 8 8 7 6 5 5 5 5 5 6 6 5 6 5 6 5 4 4 4 4 4 4 3 3 4 4 4 4 4 4 3 2 1 1 0 1 2 3 3 6 6 5 5 5 5 8 11 11 12 12 9 7 7 6 7 7 6 6 6 6 6 6 6 5 5 6 7 7 7 6 6 6 6 6 6 6 5 5 5 5 4 4 4 4 4 4
7 5 4 6 6 6 6 6 6 7 7 5 6 6 5 6 6 6 5 6 6 6 6 5 4 4 4 4 4 5 4 3 2 1 1 0 0 1 2 3 3 4 5 4 4 5 6 9 9 10 8 6 6 6 6 7 7 6 6 7 7 6 6 7 6 7 6 6 7 6 6 6 5 6 6 5 5 5 5 5 5 6 8 5 4 4 3
6 6 7 7 7 7 7 8 8 8 6 7 6 5 7 8 9 8 7 7 5 6 6 6 5 5 4 4 4 3 4 3 2 3 3 2 1 0 1 2 2 3 3 4 4 3 4 4 4 6 7 6 6 6 6 6 5 6 6 6 5 6 6 6 6 6 5 6 6 5 5 5 5 5 4 5 5 5 5 5 5 4 4 4 4 3 3
8 8 7 7 7 7 6 7 5 5 6 6 6 6 7 8 7 6 6 7 8 8 7 7 6 6 5 6 6 5 3 3 3 3 3 3 3 2 0 2 1 2 3 3 3 3 3 3 4 6 6 6 5 5 6 7 6 5 5 5 5 5 5 5 5 5 4 5 5 5 5 5 5 5 5 4 4 5 4 4 4 4 4 4 4 4 3
Wind_Direction
18 15 97 101 76 72 103 88 85 67 2 82 107 165 118 104 140 180 147 97 95 316 325 326 339 351 353 9 15 16 18 27 25 31 33 31 28 25 27 19 21 23 25 21 24 25 17 15 20 16 16 11 12 19 28 44 54 28 13 87 121 123 118 113 116 121 118 104 111 125 124 106 106 109 109 117 128 130 108 124 156 162 178 181 205 224 234
40 30 99 122 104 111 62 41 39 84 84 61 81 67 20 96 103 117 115 91 79 358 325 343 339 329 357 24 39 40 34 25 32 42 39 34 32 30 30 30 31 32 30 26 20 20 14 9 8 12 11 10 14 26 18 24 51 43 45 33 37 78 94 92 96 93 106 119 126 131 126 124 106 135 156 176 172 166 164 172 181 173 184 198 210 225 232
22 345 17 78 102 103 86 46 55 60 94 73 35 76 77 90 66 82 97 85 64 353 359 355 340 333 343 46 40 39 37 33 40 50 44 39 37 33 34 33 35 36 34 29 27 23 13 5 355 360 358 358 9 28 25 33 31 10 107 144 178 259 214 194 168 149 144 153 156 156 151 147 176 194 160 137 119 116 115 143 162 177 230 222 227 243 251
220 356 77 98 95 87 83 49 15 16 51 72 346 52 302 121 144 150 96 75 69 312 348 336 349 38 47 49 39 39 33 31 40 50 46 44 40 37 34 32 32 31 28 26 26 24 22 21 18 13 3 351 10 2 353 16 30 55 39 54 132 182 191 29 342 145 148 159 170 167 159 166 176 178 148 147 151 148 153 176 200 188 212 223 212 221 248
238 264 110 149 107 59 29 349 337 114 79 115 111 63 42 47 126 87 113 178 217 280 332 37 28 43 54 49 38 38 36 37 43 45 44 44 41 36 35 33 32 31 26 20 22 21 22 21 18 7 7 16 6 347 344 338 343 59 80 69 43 58 53 118 250 243 192 175 177 175 174 170 166 157 157 157 161 158 176 193 189 178 217 226 229 221 222
233 301 345 359 58 196 232 257 254 206 156 134 90 51 30 16 63 135 145 124 85 42 32 58 52 53 49 52 45 62 61 45 40 38 36 34 34 33 30 30 26 21 25 24 28 31 23 16 17 359 12 14 357 358 5 357 17 27 36 59 98 95 28 344 273 246 266 315 20 144 195 161 158 160 160 177 182 183 173 167 171 195 213 217 221 210 208
185 344 36 53 226 233 349 9 55 92 114 98 94 86 55 38 52 68 67 52 48 21 10 102 103 91 73 50 43 34 35 52 54 45 34 31 29 24 21 16 9 6 13 19 20 22 18 14 9 12 11 6 353 7 7 6 6 16 13 11 26 26 77 137 157 165 171 179 180 173 161 144 142 150 160 158 165 169 164 176 180 191 189 190 198 192 167
81 65 55 147 247 161 80 347 67 143 77 89 86 53 17 14 26 90 72 60 8 349 10 329 249 165 100 47 47 31 24 31 36 39 31 20 24 24 15 12 358 360 354 359 6 4 4 17 16 22 13 358 4 358 356 12 4 18 11 15 5 13 5 8 20 129 140 139 136 132 129 120 116 124 136 145 143 144 124 119 125 135 139 141 146 144 147
175 182 97 120 124 96 236 348 291 238 198 314 133 122 301 351 328 35 109 71 39 20 353 314 312 279 342 27 10 22 13 10 16 29 26 19 13 15 5 12 358 347 350 355 344 349 360 6 7 2 360 10 1 357 5 3 7 13 15 12 2 2 1 342 345 342 19 110 102 106 100 95 104 122 117 109 122 128 93 98 102 108 144 130 144 136 132
119 121 87 69 15 203 228 231 270 308 259 294 181 105 132 23 345 333 116 96 75 53 8 6 351 47 56 3 332 345 358 359 6 360 13 15 15 8 359 2 4 2 355 355 1 3 348 342 339 335 359 9 349 6 355 3 10 7 8 358 354 352 356 343 331 336 344 348 115 112 107 112 121 122 111 98 103 107 106 102 89 121 121 90 62 60 109
83 99 135 187 172 241 207 260 265 278 257 251 134 63 136 296 302 280 126 94 86 86 78 3 25 66 64 267 273 314 348 343 355 352 351 356 354 349 358 357 356 349 347 342 351 7 4 348 330 334 337 342 343 352 351 5 8 11 349 333 332 335 336 334 323 310 316 355 326 135 129 157 147 144 149 133 122 84 102 99 104 93 86 88 65 46 49
177 156 148 199 186 191 261 252 285 292 287 153 77 128 257 236 310 337 94 92 89 90 98 92 72 95 154 265 289 339 340 326 324 338 337 344 344 340 335 339 332 319 329 359 5 5 358 336 325 336 335 333 330 328 328 1 30 10 336 306 296 307 310 316 314 308 360 302 322 295 198 177 189 157 136 122 113 101 82 99 103 88 91 93 93 69 58
68 102 75 50 340 277 288 294 289 322 303 125 136 205 223 186 198 200 114 114 123 99 69 75 101 205 194 228 282 322 316 324 327 333 333 328 333 331 334 329 332 340 342 350 334 315 316 321 334 333 341 339 327 321 321 320 300 235 238 266 285 296 328 330 319 300 98 180 187 203 211 179 171 130 85 65 110 111 102 85 90 83 88 97 94 82 73
32 104 103 145 219 242 350 287 341 315 123 178 216 221 146 134 194 224 140 130 173 125 126 148 171 248 284 293 292 282 289 282 268 266 296 312 321 322 322 323 330 331 328 330 325 325 307 321 313 320 328 332 317 318 322 310 295 281 255 247 274 311 317 294 280 281 302 296 174 154 119 92 73 44 26 102 98 100 111 114 108 105 109 108 103 91 69
45 44 89 114 120 323 5 305 10 17 106 184 115 107 44 152 176 151 209 142 202 150 157 243 239 275 294 280 277 288 299 316 325 328 331 331 328 326 328 330 328 325 325 320 316 304 310 311 302 293 298 295 289 299 302 288 294 301 303 307 287 265 290 307 299 304 323 266 291 14 147 173 116 121 95 84 85 110 109 104 109 116 119 117 109 99 74
131 65 109 180 32 278 306 99 130 354 79 122 135 109 85 134 172 167 164 223 210 202 170 200 281 265 280 312 314 322 317 317 320 322 322 325 327 327 322 313 304 305 293 295 300 306 304 301 296 285 266 273 277 280 273 274 289 299 301 295 284 283 273 260 265 273 276 239 227 266 274 185 142 131 108 108 110 118 122 121 120 116 125 123 121 132 132
103 166 140 173 244 293 359 60 92 109 74 99 146 144 172 162 217 205 149 191 220 201 186 212 220 263 262 267 291 295 295 304 307 313 316 318 318 318 319 318 321 321 314 309 298 289 287 291 294 290 282 274 275 269 270 276 282 289 293 291 282 272 267 266 259 252 241 245 265 264 229 194 183 149 145 149 127 152 128 130 135 143 165 162 163 163 152
93 62 98 131 152 71 59 42 52 111 109 344 131 157 150 221 207 180 170 198 202 209 187 175 262 221 262 279 290 291 299 303 300 300 301 300 300 305 309 311 313 308 308 305 305 303 297 277 280 286 290 284 277 271 282 292 286 279 285 295 295 276 259 239 229 228 238 243 244 242 250 212 197 189 172 164 145 152 129 138 146 144 158 163 160 160 160
96 159 174 180 155 157 157 116 71 18 116 188 183 169 195 198 184 182 230 168 205 205 189 205 217 251 274 289 300 313 318 316 312 309 306 301 296 298 302 299 309 310 309 305 299 297 297 299 292 284 288 288 276 281 287 289 290 290 288 272 267 274 273 271 264 221 204 221 239 250 251 231 215 193 169 152 146 151 150 146 147 146 149 156 153 153 146
101 202 154 201 210 201 185 185 177 181 208 256 338 338 323 163 184 182 206 196 310 143 337 339 8 323 350 13 330 316 302 298 299 300 301 304 307 303 295 296 298 296 295 293 295 296 292 292 295 289 278 273 278 284 285 284 285 286 277 269 262 259 258 259 264 264 241 236 226 219 205 281 245 194 184 163 155 162 164 166 152 160 156 165 175 173 161
327 6 337 18 57 335 312 304 294 262 234 201 261 32 119 138 183 273 318 354 301 2 338 46 58 21 326 312 295 296 298 298 298 300 300 298 295 296 300 298 295 287 290 289 287 289 287 292 291 284 281 277 269 267 272 275 275 276 271 265 258 258 254 238 251 245 224 201 172 232 190 89 26 352 263 244 209 192 212 169 165 164 179 188 190 183 156
344 184 216 134 125 244 248 258 244 259 256 177 176 182 176 243 221 258 249 356 25 75 106 113 84 325 291 287 280 295 297 297 297 299 299 297 296 296 294 293 290 289 283 281 283 284 285 288 286 280 279 278 276 265 259 266 268 264 265 270 273 266 262 253 250 210 171 136 131 146 169 164 136 73 42 60 18 180 217 176 160 154 156 175 185 162 153
231 239 228 185 159 198 218 204 266 249 215 162 175 199 212 230 237 207 162 145 24 33 298 209 222 269 268 277 282 289 293 292 288 285 289 296 299 299 300 299 295 290 287 285 283 280 281 282 275 276 275 273 273 271 268 264 268 271 274 277 273 266 265 263 257 247 228 176 147 131 141 157 143 131 108 24 34 33 26 159 162 136 138 124 145 162 154
278 220 207 177 153 201 202 209 218 231 205 174 195 216 214 215 198 176 162 167 162 230 244 259 236 243 260 267 281 293 299 299 297 294 291 288 287 290 291 292 292 291 288 285 282 283 283 280 277 274 272 270 270 271 266 263 258 261 265 264 266 263 260 256 251 247 249 225 165 160 176 176 191 167 137 96 29 25 30 52 84 134 145 139 146 148 141
198 199 185 183 184 207 217 219 236 233 209 184 177 193 184 167 169 165 163 195 208 192 239 276 288 265 257 279 285 294 300 299 294 292 295 295 292 291 291 293 292 288 286 282 280 279 279 277 276 276 274 272 266 263 258 254 247 247 246 243 251 260 263 260 255 252 241 228 211 175 165 170 186 178 156 134 106 39 18 44 59 59 73 127 140 142 139
130 161 166 107 126 181 287 22 15 247 312 38 109 67 347 156 169 171 189 191 235 253 277 299 300 294 282 286 292 290 292 293 294 296 294 294 297 296 293 291 290 288 287 286 284 281 278 275 273 272 269 266 260 255 252 249 245 242 239 233 235 239 245 248 252 252 241 217 200 204 187 178 183 186 185 174 167 157 131 93 53 47 47 59 96 114 114
153 147 115 60 349 294 294 166 255 252 283 195 150 161 189 261 71 185 211 196 198 327 329 303 294 293 298 288 286 289 293 293 295 297 302 300 298 297 297 296 295 295 292 289 285 282 281 278 274 270 268 266 258 252 247 245 242 242 239 234 231 228 227 232 237 237 231 221 202 186 185 190 184 180 183 185 172 161 157 147 131 111 96 49 47 85 119
180 205 150 170 218 216 246 240 217 233 219 159 160 142 248 63 44 36 13 327 341 339 321 306 307 313 308 303 304 304 302 303 309 310 307 305 302 300 298 299 299 296 292 286 283 282 280 277 274 272 271 267 260 252 245 239 237 236 237 236 232 229 226 220 221 223 219 214 207 194 189 196 195 187 174 166 177 173 136 122 126 124 92 69 75 69 97
223 216 217 187 199 213 198 132 109 129 135 323 198 191 76 17 325 357 276 274 269 296 304 305 312 304 299 304 302 301 309 312 314 314 309 304 302 300 300 297 299 295 290 290 285 286 287 287 285 282 279 277 273 263 254 243 236 232 229 227 225 226 225 220 216 214 212 205 197 198 198 191 175 160 165 164 154 140 133 132 125 121 123 125 106 80 64
244 269 277 252 135 139 121 144 166 174 194 47 100 328 235 199 262 279 259 271 276 283 273 278 301 313 313 304 309 315 317 320 310 306 305 305 303 300 295 295 298 291 291 292 299 301 299 292 290 288 286 282 275 269 262 253 244 237 231 223 220 218 217 209 209 208 205 201 197 193 194 180 174 167 158 162 161 149 140 138 138 134 136 141 137 136 137
249 18 326 79 92 127 161 199 194 196 209 195 153 255 324 14 263 263 265 267 280 272 277 275 288 299 309 319 319 311 315 308 309 306 306 306 301 299 302 310 323 323 318 310 307 306 302 301 300 297 296 296 292 281 268 255 242 233 228 225 222 213 206 197 198 200 201 192 182 176 175 169 166 161 160 155 147 137 134 134 135 135 139 141 141 140 143
165 6 16 84 130 175 176 169 168 186 217 173 337 270 245 247 258 258 263 264 258 262 285 297 295 302 313 316 316 323 321 317 312 309 307 309 312 312 332 344 326 308 299 299 303 308 308 308 308 309 309 307 300 293 280 266 251 237 230 219 214 207 203 197 195 194 190 186 177 170 165 161 167 167 165 160 152 147 142 139 140 145 146 145 147 149 151
171 292 323 261 53 181 222 222 168 215 225 241 237 238 251 240 238 250 252 250 272 287 285 279 284 306 318 320 324 330 323 319 312 306 329 339 342 356 354 330 314 306 301 297 300 302 307 317 317 316 319 316 312 308 298 277 253 240 234 220 212 199 185 188 187 183 178 170 169 166 164 163 158 156 156 164 157 146 143 142 141 141 144 143 142 144 152
181 203 216 200 177 186 189 212 205 203 245 251 251 257 265 258 248 254 259 254 263 279 284 276 282 318 321 322 334 335 330 333 337 339 342 345 357 357 336 326 319 312 300 297 315 336 340 330 324 326 323 325 330 329 330 331 313 283 238 220 197 171 159 164 171 152 147 146 154 154 156 154 157 158 151 132 121 142 143 141 138 136 130 124 127 128 135
181 217 205 216 197 188 178 173 188 212 226 259 278 267 253 264 262 256 253 256 262 266 274 296 301 325 329 333 343 342 338 336 329 330 341 350 360 348 333 332 335 340 342 341 353 350 340 332 335 333 332 341 352 360 3 11 24 39 39 49 63 103 117 132 130 128 129 135 135 133 133 131 126 141 142 141 145 137 126 130 135 136 131 129 126 121 132
171 226 262 258 212 184 180 196 205 216 218 237 248 263 282 278 275 275 261 246 261 278 313 354 346 353 3 354 350 342 334 335 334 337 344 353 351 342 341 352 356 355 349 338 353 351 340 336 333 335 340 352 359 12 15 20 38 40 52 59 70 72 86 102 106 108 110 116 116 121 127 132 130 138 150 137 124 125 131 129 127 127 126 128 134 132 129
198 192 201 217 228 200 204 212 206 209 224 234 254 268 259 262 263 262 241 281 307 307 24 73 41 23 358 341 330 319 337 348 343 339 339 342 340 348 1 6 9 2 349 351 338 337 331 333 329 339 348 0 3 16 18 24 38 41 51 56 67 76 84 89 87 91 90 97 103 109 109 105 104 97 97 109 119 120 119 118 112 113 117 126 130 128 127
207 187 188 201 209 201 212 225 223 229 274 298 282 230 223 205 180 163 131 9 348 333 40 97 109 285 339 281 327 351 2 2 351 340 344 347 344 1 16 22 11 357 357 337 318 323 324 330 334 351 357 1 4 14 19 25 37 44 49 49 59 69 75 81 83 86 89 93 99 104 108 111 112 110 111 107 108 111 108 105 107 116 117 120 119 120 120
211 230 227 221 204 207 248 291 313 263 226 231 261 286 267 188 180 135 66 14 325 317 87 47 30 52 357 325 345 1 3 352 345 349 354 351 347 9 32 25 14 351 315 307 313 321 334 343 351 2 8 360 3 12 19 24 31 43 47 52 52 61 63 71 73 77 75 80 83 87 88 87 91 94 91 87 88 88 91 104 112 112 109 114 111 109 107
205 197 205 195 207 224 240 269 282 280 264 228 213 221 202 159 178 124 86 45 358 344 106 76 51 36 12 358 344 357 349 345 345 355 1 348 350 359 9 16 6 350 342 338 342 344 349 357 3 7 5 3 7 10 20 26 33 41 46 54 57 55 57 65 71 74 74 75 78 77 77 78 78 79 83 85 88 93 100 104 101 102 100 93 91 95 97
206 206 211 189 213 211 222 254 274 276 292 286 246 236 177 163 163 127 140 160 301 25 84 93 91 46 37 28 4 334 333 342 353 3 355 3 22 17 27 10 340 341 344 345 347 354 1 6 5 3 359 3 11 15 24 29 36 41 44 46 50 54 59 57 59 60 68 70 72 76 82 85 84 82 84 87 89 91 92 91 91 90 95 98 94 91 91
216 208 207 207 216 219 228 237 261 307 298 282 260 214 183 171 155 175 197 196 106 76 96 83 118 111 56 19 16 1 358 354 352 351 4 29 22 9 23 354 331 334 342 352 3 8 6 8 4 9 2 4 12 23 35 40 40 43 48 47 51 51 56 55 58 59 62 67 70 76 75 81 84 85 81 85 82 84 87 88 87 84 83 84 88 89 98
207 204 213 216 220 222 226 228 233 239 266 281 259 213 178 168 145 126 133 145 121 124 119 108 74 63 52 39 37 26 358 349 353 347 346 342 11 70 43 315 325 341 356 10 9 14 12 6 9 7 16 23 24 25 37 40 42 46 49 50 52 55 57 57 59 59 61 64 64 65 69 75 76 81 80 77 78 77 79 81 85 83 83 81 84 82 79
207 205 211 211 221 221 214 221 228 235 258 277 247 170 161 170 165 156 171 160 141 150 150 143 119 102 81 63 57 39 3 350 346 341 353 343 358 11 17 358 344 352 10 14 15 19 13 12 12 19 27 32 33 36 37 36 39 45 50 56 59 57 59 61 59 60 62 64 64 66 69 72 74 74 78 82 81 77 75 76 78 79 82 81 80 81 81
207 207 209 213 215 213 217 216 207 223 228 240 159 149 171 171 174 173 162 164 156 164 162 161 162 160 148 130 109 352 316 318 310 338 38 14 22 350 341 357 3 14 12 20 24 22 20 17 23 30 35 35 40 43 47 41 44 46 47 52 57 65 66 66 67 69 71 72 72 73 73 74 77 78 81 80 79 80 79 80 78 77 82 82 82 82 81
213 213 213 210 212 216 217 213 224 210 187 158 129 191 199 191 175 181 176 162 161 185 182 181 170 178 170 160 149 34 351 334 335 327 280 245 116 297 315 1 12 18 23 27 27 24 23 25 32 34 36 38 41 45 44 47 51 53 54 51 50 52 60 66 69 71 72 76 77 76 78 80 79 79 80 85 84 87 86 83 82 77 78 81 82 86 86
213 213 205 205 216 221 215 217 204 165 137 150 199 221 216 212 191 179 190 182 163 174 170 178 185 190 184 167 156 139 112 32 6 358 12 2 359 2 4 21 25 27 29 31 31 32 32 34 36 36 38 39 44 46 45 50 51 56 58 62 60 62 58 58 58 61 62 65 67 71 72 74 77 81 82 83 82 82 87 86 87 86 82 81 79 81 81
205 211 213 209 215 219 205 189 161 179 188 203 211 214 201 188 191 189 179 166 151 147 155 175 190 195 203 209 204 181 156 140 97 3 347 9 356 13 24 28 29 35 33 29 34 33 40 45 44 43 41 42 43 43 44 48 53 56 58 57 61 60 66 68 67 68 69 67 68 69 68 67 67 68 70 74 78 79 80 82 83 79 75 75 79 76 81
202 208 213 207 210 200 190 194 196 200 216 221 210 219 189 180 176 171 172 171 159 155 171 187 193 205 210 207 191 200 202 178 136 190 256 5 33 32 5 15 34 35 36 36 35 28 38 48 50 48 46 45 45 43 46 47 52 55 56 59 60 59 60 63 65 72 80 80 82 80 81 79 78 78 80 78 78 77 79 78 76 76 82 81 76 76 72
203 200 202 202 203 199 195 195 205 213 218 197 212 209 168 151 160 202 192 181 184 174 172 180 198 211 209 209 207 206 202 211 222 163 105 124 347 356 15 30 32 47 51 48 36 28 28 43 50 52 52 51 47 47 47 52 52 53 57 58 58 57 58 65 71 72 76 79 77 78 78 81 83 80 83 84 81 79 77 78 76 82 83 79 78 76 71
192 194 206 208 206 208 197 193 203 202 198 200 205 176 159 175 194 192 185 180 168 172 185 193 204 207 212 219 221 209 197 170 129 122 130 151 157 351 355 20 30 49 58 58 49 37 31 39 46 57 61 62 57 53 51 53 54 55 57 60 61 65 65 63 65 67 69 75 82 83 85 83 84 85 83 87 90 89 84 82 80 75 73 77 81 84 83
192 197 204 204 206 208 202 207 213 206 202 191 170 160 182 193 192 189 187 182 180 186 183 172 206 224 203 202 200 214 213 173 142 133 134 141 143 146 326 15 24 30 51 63 58 49 41 44 54 62 68 70 70 66 58 55 57 58 58 61 63 62 66 74 78 81 79 85 88 84 76 76 82 80 74 67 70 74 73 71 70 67 69 64 61 64 66